This demonstration page uses our WeatherBlox Daily Observations layout. Learn more.

Left ArrowRight Arrow

39.01783, -85.05884

Hourly Observations for February 18, 2019

Temp ( °F °C ) Dew Point ( °F °C ) Humidity (%) Winds ( mph kmh ) Pressure ( in mb ) Visibility ( mi km ) Precip ( " mm )
12:52 am 00:52 Cloudy 33 0.6 29 -1.7 85 85 W 13 20 29.93 1014 8 13 0.00 0.00
1:24 am 01:24 Cloudy 33 0.6 29 -1.7 85 85 W 12 19 29.97 1015 8 13 0.00 0.00
1:52 am 01:52 Cloudy 33 0.6 29 -1.7 85 85 W 10 17 29.96 1015 8 13 0.00 0.00
2:52 am 02:52 Cloudy 33 0.6 29 -1.7 85 85 WSW 7 11 29.98 1015 7 11 0.00 0.00
3:52 am 03:52 Cloudy 33 0.6 28 -2.2 82 82 W 13 20 29.99 1016 9 14 0.00 0.00
4:52 am 04:52 Cloudy 32 0 26 -3.3 79 79 W 12 19 30.02 1017 10 16 0.00 0.00
5:52 am 05:52 Cloudy 32 0 26 -3.3 79 79 W 8 13 30.04 1017 10 16 0.00 0.00
6:10 am 06:10 Cloudy 32 0 26 -3.3 79 79 W 12 19 30.09 1019 10 16 0.00 0.00
6:44 am 06:44 Cloudy 32 0 25 -3.9 75 75 W 13 20 30.11 1020 10 16 0.00 0.00
6:52 am 06:52 Cloudy 32 0 25 -3.9 75 75 W 16 26 30.08 1019 10 16 0.00 0.00
7:21 am 07:21 Cloudy with Light Snow 32 0 25 -3.9 75 75 WNW 10 17 30.13 1020 9 14 0.00 0.03
7:52 am 07:52 Cloudy 31 -0.6 24 -4.4 76 76 W 13 20 30.11 1020 9 14 0.00 0.03
8:16 am 08:16 Cloudy 31 -0.6 24 -4.4 76 76 W 9 15 30.16 1021 10 16 0.00 0.00
8:52 am 08:52 Cloudy 31 -0.6 23 -5 72 72 WNW 16 26 30.16 1021 9 14 0.00 0.00
9:52 am 09:52 Cloudy with Light Snow 31 -0.6 23 -5 72 72 W 15 24 30.20 1023 8 13 0.00 0.03
10:33 am 10:33 Cloudy 31 -0.6 22 -5.6 69 69 W 18 30 30.25 1024 10 16 0.00 0.03
10:52 am 10:52 Cloudy 32 0 22 -5.6 66 66 WNW 15 24 30.23 1024 10 16 0.00 0.03
11:52 am 11:52 Mostly Cloudy 34 1.1 20 -6.7 56 56 W 20 31 30.26 1025 10 16 0.00 0.00
12:52 pm 12:52 Cloudy 34 1.1 19 -7.2 54 54 WNW 20 31 30.28 1025 10 16 0.00 0.00
1:52 pm 13:52 Cloudy 34 1.1 20 -6.7 56 56 WNW 14 22 30.30 1026 10 16 0.00 0.00
2:52 pm 14:52 Cloudy with Light Snow 33 0.6 21 -6.1 61 61 WNW 15 24 30.32 1027 9 14 0.00 0.03
3:52 pm 15:52 Cloudy 33 0.6 22 -5.6 64 64 WNW 14 22 30.35 1028 10 16 0.00 0.03
4:52 pm 16:52 Cloudy 32 0 22 -5.6 66 66 WNW 14 22 30.38 1029 9 14 0.00 0.03
5:52 pm 17:52 Cloudy 31 -0.6 23 -5 72 72 WNW 8 13 30.41 1030 8 13 0.00 0.03
6:52 pm 18:52 Cloudy with Light Snow 31 -0.6 21 -6.1 67 67 WNW 9 15 30.45 1031 9 14 0.00 0.03
7:52 pm 19:52 Cloudy 30 -1.1 19 -7.2 64 64 NW 9 15 30.49 1032 10 16 0.00 0.03
8:52 pm 20:52 Cloudy 28 -2.2 19 -7.2 69 69 N 7 11 30.50 1033 10 16 0.00 0.00
9:52 pm 21:52 Cloudy 27 -2.8 18 -7.8 69 69 N 5 7 30.52 1033 10 16 0.00 0.00
10:52 pm 22:52 Mostly Cloudy 27 -2.8 18 -7.8 69 69 N 5 7 30.53 1034 10 16 0.00 0.00
11:52 pm 23:52 Partly Cloudy 25 -3.9 18 -7.8 75 75 N 6 9 30.53 1034 10 16 0.00 0.00

Powered by AerisWeather